Токтогул

Киргизия     41°52′18″N   72°56′15″E
темп.,
°C
ветер,
м/с
пор.,
м/с
влажн.,
%
обл.,
%
осадки,
мм/ч
давл.,
гПа
погр.,
м
17 апреля, сб
сб1700:00+11ю22672 0.8 101918
03:00+11ю116444 0.1 101816
06:00+10ю116244 0.1 1019127
09:00+11ссв11536 0.0 1020271
12:00+13зсз215151 0.1 1019553
15:00+15ююв014611 0.4 1017834
18:00+16вюв22467 0.9 1016924
21:00+14вюв1156100 0.1 101711
18 апреля, вс
вс1800:00+13юв1256100 0.1 101714
03:00+12ююв1156100 0.0 101714
06:00+11юв1155100 0.0 101714
09:00+12зсз1052100 0.0 1019170
12:00+14ююз1147100 0.4 1018701
15:00+14юв6652100 0.8 1017496
18:00+11з4468100 1.9 1020588
21:00+6всв2292100 5.0 1026262
19 апреля, пн
пн1900:00+7с1189100 7.1 1025284
03:00+7с1184100 0.7 1024292
06:00+7сз119197 0.8 1024182
09:00+7с118780 0.0 1024260
12:00+9сз1178100 0.2 1021480
15:00+11юз116594 0.2 1018545
18:00+13сз1152100 0.3 1015413
21:00+12ю1162100 0.0 101611
20 апреля, вт
вт2000:00+11юв1162100 0.0 101513
03:00+11ююв1160100 0.0 101419
06:00+10ююз115796 0.0 1013117
09:00+11ссз105198 0.0 1013240
12:00+12ссз2149100 0.0 1012462
15:00+15с223956 0.1 1008558
18:00+16сз124399 0.1 1006341
21:00+14ю2253100 0.1 100616
21 апреля, ср
ср2100:00+12ю4563100 0.4 1006110
03:00+9з1183100 3.1 1007277
06:00+8ссв1188100 6.4 1008240
09:00+8сз3389100 2.9 1010433
12:00+6сз1288100 5.5 1014315
15:00+6с119098 1.4 1015266
18:00+7с228494 2.4 1015272
21:00+6сз228798 1.8 1019255